Simultaneous Nadir Overpasses (SNOs) Predictions

Prediction of SNOs between METOP-C and LANDSAT-8 Satellite Orbit:

Table of predicted SNOs for the next 14.0 days since TLE Epoch: 5/31/2019
Index Date (METOP-C) Time (METOP-C) Lat,Lon (METOP-C) SZA (METOP-C ) Date (LANDSAT-8) Time (LANDSAT-8) Lat,Lon (LANDSAT-8) SZA (LANDSAT-8 ) Distance(km) Time Diff (sec)
1 06/01/2019 14:43:39 81.13, -0.94 61.29 06/01/2019 14:43:45 81.13, -0.86 61.30 1.50 6
2 06/01/2019 15:34:19 -81.15, 167.08 118.63 06/01/2019 15:33:11 -81.15, 167.13 118.66 1.01 68
3 06/04/2019 09:27:25 -81.09,-102.76 119.19 06/04/2019 09:28:37 -81.09,-102.61 119.15 2.63 72
4 06/04/2019 10:18:01 81.14, 65.96 60.99 06/04/2019 10:18:01 81.14, 65.79 60.97 2.94 0
5 06/04/2019 11:08:26 -81.30,-120.21 118.19 06/04/2019 11:07:12 -81.46,-120.49 118.15 19.29 74
6 06/07/2019 05:01:46 -81.11, -35.84 119.44 06/07/2019 05:02:52 -81.11, -35.96 119.43 2.22 66
7 06/07/2019 05:52:24 81.13, 132.12 60.64 06/07/2019 05:52:17 81.13, 132.05 60.63 1.12 7
8 06/10/2019 00:36:09 -81.12, 30.71 119.69 06/10/2019 00:37:08 -81.12, 30.66 119.66 0.82 59
9 06/10/2019 01:26:47 81.14,-161.35 60.40 06/10/2019 01:26:33 81.14,-161.34 60.39 0.44 14
10 06/12/2019 20:10:33 -81.11, 96.87 119.93 06/12/2019 20:11:25 -81.11, 96.90 119.91 0.52 52




NCC Satellite Simultaneous Nadir Overpasses (SNOs) Prediction Service
